Weather History for KIMT - September, 2013

Change the Weather History Date:

Wednesday, September 4, 2013

  Actual Average Record
Temperature  
Mean Temperature 60 °F -  
Max Temperature 72 °F 73 °F 90 °F (1948)
Min Temperature 48 °F 50 °F 10 °F (2005)
Degree Days  
Heating Degree Days 6    
Growing Degree Days 10 (Base 50)    
Moisture  
Dew Point 50 °F    
Average Humidity 69    
Maximum Humidity 89    
Minimum Humidity 38    
Precipitation  
Precipitation 0.00 in - - ()
Sea Level Pressure  
Sea Level Pressure 30.08 in    
Wind  
Wind Speed 8 mph (NNW)    
Max Wind Speed 15 mph    
Max Gust Speed -    
Visibility 10 miles    
Events      
Averages and records for this station are not official NWS values.
T = Trace of Precipitation, MM = Missing Value Source: NWS Daily Summary

Daily Weather History Graph

Daily Weather History Graph

Search for Another Location

Airport or City:

Trip Planner

Search our weather history database for the weather conditions in past years. The results will help you decide how hot, cold, wet, or windy it might be!

Date:

Astronomy

Sep. 04, 2013 Rise Set
Actual Time 6:17 AM CDT 7:24 PM CDT
Civil Twilight 5:46 AM CDT 7:54 PM CDT
Nautical Twilight 5:10 AM CDT 8:31 PM CDT
Astronomical Twilight 4:31 AM CDT 9:10 PM CDT
Moon 5:29 AM CDT (9/4) 6:42 PM CDT (9/4)
Length of Visible Light 14h 08m
Length of Day
13h 06m
Waning Crescent, 1% of the Moon is Illuminated
Sep 4
Waning Crescent
Sep 5
New
Sep 12
First Quarter
Sep 19
Full
Sep 26
Last Quarter

Hourly Weather History & Observations

Time (CDT) Temp. Dew Point Humidity Pressure Visibility Wind Dir Wind Speed Gust Speed Precip Events Conditions
12:54 AM 62.1 °F 53.1 °F 72% 29.94 in 10.0 mi WNW 10.4 mph - N/A   Clear
1:54 AM 62.1 °F 53.1 °F 72% 29.94 in 10.0 mi WNW 9.2 mph - N/A   Clear
2:54 AM 62.1 °F 53.1 °F 72% 29.93 in 10.0 mi WNW 6.9 mph - N/A   Clear
3:54 AM 60.1 °F 53.1 °F 78% 29.95 in 10.0 mi NW 6.9 mph - N/A   Clear
4:54 AM 59.0 °F 53.1 °F 81% 29.97 in 10.0 mi NW 4.6 mph - N/A   Clear
5:34 AM 57.2 °F 53.6 °F 88% 29.99 in 10.0 mi Calm Calm - N/A   Mostly Cloudy
5:54 AM 59.0 °F 55.0 °F 87% 30.00 in 10.0 mi NW 3.5 mph - N/A   Overcast
6:44 AM 60.8 °F 55.4 °F 82% 30.04 in 10.0 mi NNE 8.1 mph - N/A   Overcast
6:54 AM 60.1 °F 55.9 °F 86% 30.05 in 9.0 mi North 15.0 mph - N/A   Overcast
7:04 AM 59.0 °F 55.4 °F 88% 30.05 in 9.0 mi NNE 8.1 mph - N/A   Overcast
7:46 AM 57.2 °F 51.8 °F 82% 30.07 in 10.0 mi North 9.2 mph - N/A   Overcast
7:54 AM 57.0 °F 52.0 °F 83% 30.08 in 10.0 mi North 9.2 mph - N/A   Overcast
8:54 AM 57.9 °F 51.1 °F 78% 30.09 in 10.0 mi NNE 6.9 mph - N/A   Overcast
9:54 AM 59.0 °F 50.0 °F 72% 30.12 in 10.0 mi NNE 6.9 mph - N/A   Overcast
10:17 AM 60.8 °F 50.0 °F 68% 30.12 in 10.0 mi North 9.2 mph - N/A   Overcast
10:54 AM 62.1 °F 50.0 °F 65% 30.12 in 10.0 mi North 10.4 mph - N/A   Overcast
11:54 AM 64.9 °F 48.9 °F 56% 30.12 in 10.0 mi NNE 8.1 mph - N/A   Overcast
12:21 PM 66.2 °F 51.8 °F 60% 30.12 in 10.0 mi NNW 11.5 mph - N/A   Scattered Clouds
12:54 PM 66.9 °F 50.0 °F 54% 30.12 in 10.0 mi North 8.1 mph - N/A   Clear
1:54 PM 69.1 °F 48.9 °F 49% 30.10 in 10.0 mi North 11.5 mph - N/A   Clear
2:54 PM 70.0 °F 50.0 °F 49% 30.10 in 10.0 mi NNW 10.4 mph - N/A   Clear
3:54 PM 71.1 °F 44.1 °F 38% 30.10 in 10.0 mi NW 8.1 mph - N/A   Clear
4:54 PM 71.1 °F 44.1 °F 38% 30.11 in 10.0 mi NNW 9.2 mph - N/A   Clear
5:54 PM 70.0 °F 46.0 °F 42% 30.11 in 10.0 mi North 6.9 mph - N/A   Clear
6:54 PM 66.9 °F 48.9 °F 52% 30.11 in 10.0 mi NNW 3.5 mph - N/A   Clear
7:54 PM 59.0 °F 48.9 °F 69% 30.14 in 10.0 mi NNW 3.5 mph - N/A   Clear
8:54 PM 55.0 °F 46.9 °F 74% 30.17 in 10.0 mi NNW 3.5 mph - N/A   Clear
9:54 PM 53.1 °F 45.0 °F 74% 30.20 in 10.0 mi ENE 3.5 mph - N/A   Clear
10:54 PM 48.9 °F 44.1 °F 83% 30.21 in 10.0 mi Calm Calm - N/A   Clear
11:54 PM 48.0 °F 45.0 °F 89% 30.21 in 10.0 mi Calm Calm - N/A   Clear